Welcome to the New NWS' Forecast!
Most changes are behind the scenes, but click here for differences you might notice.

Regional Weather Roundup (RWR)

Issued by Wakefield, VA (AKQ)

                            
216 
ASUS41 KAKQ 201214
RWRAKQ

REGIONAL WEATHER ROUNDUP
NATIONAL WEATHER SERVICE WAKEFIELD VA
800 AM EDT MON AUG 20 2018

Note: "fair" indicates few or no clouds below 12,000 feet with no
significant weather and/or obstructions to visibility. * = Denotes
station may not report precipitation (e.g., rain,snow,etc.),
thunder or fog.

VAZ042-051-052>054-056-201300-
NORTHERN VIRGINIA
  
CITY           SKY/WX    TMP DP  RH WIND       PRES   REMARKS
WASH NATIONAL  LGT RAIN  72  65  78 NE13      30.08R                  
DULLES         PTSUNNY   69  67  93 NE8       30.07S                  
FORT BELVOIR   CLOUDY    70  68  95 CALM      30.08R                  
QUANTICO       CLOUDY    73  71  93 E13       30.08R                  
FREDERICKSBRG* CLOUDY    71  71 100 CALM      30.07R                  
STAFFORD*      CLOUDY    71  71 100 CALM      30.11R                  
WARRENTON      CLOUDY    71  67  87 E3        30.08R                  
CULPEPER*      CLOUDY    71  69  94 CALM      30.09R                  
MANASSAS*      PTSUNNY   70  68  93 E6        30.07R                  
LEESBURG*      CLOUDY    68  66  94 NE9       30.09R                  
WINCHESTER     CLOUDY    66  64  94 CALM      30.10S                  
FRONT ROYAL*   CLOUDY    68  68 100 CALM      30.07F                  
LURAY*         CLOUDY    68  68 100 NE5       30.07F                  
$$

VAZ048-049-060>072-079>083-201300-
CENTRAL AND SOUTH CENTRAL VIRGINIA
  
CITY           SKY/WX    TMP DP  RH WIND       PRES   REMARKS
RICHMOND       CLOUDY    74  72  93 NE10      30.02F                  
CHESTERFIELD*  NOT AVBL                                               
PETERSBURG*    CLOUDY    74  72  91 E5        30.03R                  
HANOVER        CLOUDY    72  72 100 N5        30.06R                  
TAPPAHANNOCK*  PTSUNNY   73  72  95 N3        30.06R                  
QUINTON*       PTSUNNY   73  73 100 NE3       30.02R                  
CHARLOTTSVILLE CLOUDY    72  68  87 NE7       30.07R FOG              
GORDONSVILLE*  CLOUDY    70  70 100 NE5       30.07R                  
ORANGE*        CLOUDY    68  68 100 NE5       30.08R                  
LOUISA*        CLOUDY    70  69  98 NE6       30.11R                  
BUMPASS*       CLOUDY    70  68  95 CALM      30.07R                  
FARMVILLE*     CLOUDY    71  71  99 N3        30.04R FOG              
CREWE*         CLOUDY   N/A N/A N/A CALM      30.04R                  
FORT PICKETT*  CLOUDY   N/A N/A N/A CALM      30.04R                  
CHASE CITY*    CLOUDY    72  72 100 CALM      30.05R                  
CLARKSVILLE*   CLOUDY    70  70 100 CALM      30.05R VSB 1/4          
SOUTH HILL*    CLOUDY    73  73 100 CALM      30.10R                  
LAWRENCEVILLE* CLOUDY    74  73  96 CALM      30.04R                  
EMPORIA*       NOT AVBL                                               
$$

VAZ088>098-201300-
SOUTHEAST VIRGINIA
  
CITY           SKY/WX    TMP DP  RH WIND       PRES   REMARKS
NORFOLK        FAIR      73  69  87 SE6       30.02F                  
VIRGINIA BEACH TSTM      70  48  45 E6        30.00F                  
NORFOLK NAVAL  CLOUDY    73  69  87 SE5       30.04R THUNDER          
WEST POINT*    FAIR      73  73 100 NE5       30.04R                  
SALUDA*        CLOUDY    73  73 100 E5        30.04R                  
NEWPORT NEWS   FAIR      75  72  90 E9        30.02R                  
LANGLEY AFB    PTSUNNY   76  76  97 E14       30.03R                  
FORT EUSTIS    MOSUNNY   74  72  94 NE5       30.00R                  
WILLIAMSBURG*  FAIR      75  73  94 E5        30.03R                  
HR EXEC AP*    NOT AVBL                                               
FRANKLIN*      PTSUNNY   73  73  98 E3        30.02S                  
US460-WAKEFLD  CLOUDY    74  72  93 NE3       30.02S                  
$$

VAZ020-022-025-037-045-201300-
WEST CENTRAL AND SOUTHWEST VIRGINIA
  
CITY           SKY/WX    TMP DP  RH WIND       PRES   REMARKS
STAUNTON*      CLOUDY    68  67  95 N5        30.11R                  
WAYNESBORO*    CLOUDY    67  67 100 CALM      30.10R                  
HOT SPRINGS VA DRZL/FOG  64  64 100 E6        30.19R VSB<1/4          
LYNCHBURG      CLOUDY    70  68  93 NE6       30.08R                  
DANVILLE       CLOUDY    71  71 100 CALM      30.07R                  
SOUTH BOSTON*  CLOUDY    71  70  95 CALM      30.06R                  
MARTINSVILLE   CLOUDY    70  70 100 CALM      30.11R                  
ROANOKE        CLOUDY    71  68  90 CALM      30.10S                  
BLACKSBURG     CLOUDY    69  69 100 E8        30.15R FOG              
DUBLIN*        CLOUDY    70  70  98 E3        30.12S                  
MARION*        CLOUDY    69  17  13 CALM      30.15R HAZE             
HILLSVILLE*    FOG       68  67  95 CALM      30.13R VSB 1/4          
RICHLANDS*     CLOUDY    67  66  97 CALM      30.12R                  
WISE*          FAIR      68  68 100 S3        30.12R                  
ABINGDON*      CLOUDY    72  72 100 E3        30.10R                  
$$

MDZ021>025-VAZ099-100-201300-
SOUTHERN MARYLAND AND THE DELMARVA PENINSULA
  
CITY           SKY/WX    TMP DP  RH WIND       PRES   REMARKS
PATUXENT RIVER NOT AVBL                                               
BAY BRIDGE APT CLOUDY    70  66  88 E8        30.08R                  
LEONARDTOWN    CLOUDY    72  68  88 NE3       30.07S                  
DOVER          CLOUDY    70  66  87 NE12      30.08R                  
GEORGETOWN     CLOUDY    73  70  90 NE12      30.08R                  
EASTON         CLOUDY    72  66  83 NE8       30.10R                  
CAMBRIDGE      PTSUNNY   72  68  88 NE6       30.06S                  
SALISBURY      FAIR      73  71  93 NE6       30.05S                  
TANGIER        CLOUDY    75  75 100 NE12      30.04R                  
OCEAN CITY     CLOUDY    75  71  87 NE8G17    30.06S                  
WALLOPS ISLAND LGT RAIN  75  74  96 N6        30.05S                  
ACCOMACK*      RAIN      74  73  97 NE6       30.04S                  
$$

NCZ012>017-030>032-201300-
NORTH CENTRAL AND EASTERN NORTH CAROLINA
  
CITY           SKY/WX    TMP DP  RH WIND       PRES   REMARKS
ROANOKE RAPIDS PTSUNNY   72  72 100 NW5       30.02F                  
RALEIGH        PTSUNNY   70  69  97 N3        30.03F                  
ELIZABETH CITY PTSUNNY   77  76  96 CALM      30.04R                  
AHOSKIE*       RAIN      74  74 100 CALM      30.03R                  
EDENTON*       NOT AVBL                                               
CURRITUCK*     HVY RAIN  73  71  94 MISG      30.05R                  
KILL DEVIL HLS PTSUNNY   75  72  88 CALM      30.03R                  
MANTEO         CLOUDY    74  71  90 NW7       30.05R                  
CAPE HATTERAS  LGT RAIN  77  74  90 S6        30.05R FOG              
TARBORO*       NOT AVBL                                               
GOLDSBORO        N/A     75  73  95 CALM      30.01R                  
WASHINGTON     FAIR      71  70  97 SE3       30.04R                  
GREENVILLE     FAIR      73  72  94 CALM      30.05R                  
NEW BERN       FAIR      71  71 100 N3        30.06R                  
WILMINGTON     FAIR      78  70  76 SW8       30.05R                  
$$

VAZ048-201300-
ELSEWHERE
  
CITY           SKY/WX    TMP DP  RH WIND       PRES   REMARKS
HARRISBURG PA  CLOUDY    67  63  87 CALM      30.10F                  
BALTIMORE      CLOUDY    69  63  81 NE8       30.09R                  
ANNAPOLIS      CLOUDY   N/A N/A N/A NE8       30.08R                  
ANDREWS AFB    CLOUDY    69  66  91 NE8       30.07R                  
PHILADELPHIA   PTSUNNY   68  62  81 NE10      30.11R                  
HENDERSON NC   LGT RAIN  67  66  96 CALM      30.06S                  
GREENSBORO     CLOUDY    70  70 100 NE7       30.06R FOG              
ROCKY MOUNT    FAIR      72  70  93 N6        30.02S                  
$$

VAZ100-201300-
MARINE
  
STATION/POSITION TIME  TEMP    WIND        PRES    WAVE   SWELL
                       AIR SEA DIR/SP/G            HT/PER HT/PER
                 (UTC) (F)     (DEG/KT/KT) (MB)    (FT/S) (FT/S)
BRANDYWINE LGT   1142   71      50/ 18/ 19 1019.0R
CAPE MAY NJ      1148      72                N/A
LEWES DE         1142           50/ 11/ 13   N/A
15NM E FENWICK I 1150   82 79  240/ 12/ 16 1018.5R   5/ 8   3/ 8
OCEAN-CITY-INLET 1142           70/  7/ 11   N/A
WACHAPREAGUE VA  1142   75 81   20/  5/  9 1017.3R
THOMAS POINT MD  1200   71 81   60/ 15/ 16 1019.2R
GOOSES REEF MD   1150   73      50/ 12/ 16 1018.7R
COVE POINT MD    1142   72      70/ 12/ 17 1018.4R
SOLOMONS ISLAND  1148   73 82   40/  9/ 13 1017.7R
BISHOPS HEAD MD  1148           50/ 11/ 16 1018.2R
PINEY POINT MD   1136           80/  7/  9   N/A
POTOMAC MD       1150   75      80/ 16/ 17 1016.7R
CAMBRIDGE MD     1148   72 84              1019.0R
LEWISETTA VA     1136   76 82   60/ 11/ 16 1017.2R
RAPPAHANNOCK LGT 1136           60/ 11/ 12 1017.9R
STINGRAY PT      1150   77     130/  8/ 29 1016.1F
YORK RVR RNG VA  1136   78      80/ 12/ 13 1017.5R
YORKTOWN VA      1136   76 83   30/  5/  7 1016.6R
DOMINION TERM VA 1136   76     110/  8/ 10 1016.8R
KIPTOPEKE VA     1136      75   70/  5/  6   N/A
CAPE HENRY VA    1136   77      90/ 11/ 13 1015.1S
WILLOUBY STN VA  1136   75     150/  8/ 10 1016.2R
S CRANEY ISL VA  1148          110/  8/ 10   N/A
1ST LANDING BUOY 1150   76      80/ 12/ 16 1016.6R
64NM E OF VA BCH 1150   74 81  150/ 14/ 16 1017.5R   4/ 6   2/ 7
DUCK PIER NC     1136   74 74   70/ 10/ 11 1016.6R
44100 DUCK FRF   1145      80                N/A     3/ 7
OREGON INLET NC  1136   77 81  240/  7/  9 1016.6F
HATTERAS NC      1148   75 79  190/  2/  4 1017.4R
DIAMOND SHLS NC  1150   79 81  260/  6/  6 1018.1R   3/ 7   3/ 7
CAPE LOOKOUT NC  1100          250/  7/ 10 1016.9R
$$